Hourly Weather San Luis

Today, 3 August, Monday

Time Temperature Precipitation Wind Pressure Humidity
00:00 +13°C° 0 mm 4 mps 702 mmHg 60%
01:00 +13°C° 0 mm 3 mps 702 mmHg 60%
02:00 +13°C° 0 mm 3 mps 701 mmHg 59%
03:00 +12°C° 0 mm 3 mps 701 mmHg 59%
04:00 +13°C° 0 mm 2 mps 700 mmHg 60%
05:00 +12°C° 0 mm 2 mps 700 mmHg 61%
06:00 +13°C° 0 mm 2 mps 700 mmHg 60%
07:00 +13°C° 0 mm 2 mps 700 mmHg 59%
08:00 +13°C° 0 mm 2 mps 700 mmHg 58%
09:00 +16°C° 0 mm 3 mps 700 mmHg 52%
10:00 +19°C° 0 mm 4 mps 700 mmHg 45%
11:00 +22°C° 0 mm 5 mps 701 mmHg 39%
12:00 +23°C° 0 mm 6 mps 700 mmHg 38%
13:00 +26°C° 0 mm 8 mps 700 mmHg 36%
14:00 +27°C° 0 mm 9 mps 699 mmHg 35%
15:00 +27°C° 0 mm 7 mps 699 mmHg 37%
16:00 +26°C° 0 mm 6 mps 698 mmHg 39%
17:00 +26°C° 0 mm 4 mps 698 mmHg 41%
18:00 +23°C° 0 mm 4 mps 698 mmHg 45%
19:00 +21°C° 0 mm 3 mps 698 mmHg 49%
20:00 +20°C° 0 mm 3 mps 698 mmHg 53%
21:00 +19°C° 0 mm 3 mps 698 mmHg 55%
22:00 +18°C° 0 mm 2 mps 698 mmHg 58%
23:00 +18°C° 0 mm 2 mps 698 mmHg 60%

Tomorrow, 4 August, Tuesday

Time Temperature Precipitation Wind Pressure Humidity
00:00 +17°C° 0 mm 2 mps 698 mmHg 63%
01:00 +18°C° 0 mm 1 mps 698 mmHg 66%
02:00 +16°C° 0 mm 1 mps 698 mmHg 69%
03:00 +16°C° 0 mm 1 mps 698 mmHg 71%
04:00 +16°C° 0 mm 1 mps 697 mmHg 73%
05:00 +15°C° 0 mm 1 mps 697 mmHg 75%
06:00 +16°C° 0 mm 1 mps 697 mmHg 72%
07:00 +16°C° 0 mm 2 mps 698 mmHg 69%
08:00 +17°C° 0 mm 2 mps 698 mmHg 66%
09:00 +19°C° 0 mm 3 mps 699 mmHg 59%
10:00 +22°C° 0 mm 5 mps 699 mmHg 51%
11:00 +24°C° 0 mm 6 mps 699 mmHg 44%
12:00 +26°C° 0 mm 7 mps 699 mmHg 41%
13:00 +27°C° 0 mm 7 mps 698 mmHg 38%
14:00 +28°C° 0 mm 8 mps 698 mmHg 35%
15:00 +28°C° 0 mm 7 mps 697 mmHg 36%
16:00 +27°C° 0 mm 5 mps 697 mmHg 37%
17:00 +27°C° 0 mm 4 mps 697 mmHg 38%
18:00 +24°C° 0 mm 3 mps 697 mmHg 47%
19:00 +20°C° 0 mm 3 mps 697 mmHg 56%
20:00 +18°C° 0 mm 2 mps 696 mmHg 64%
21:00 +17°C° 0 mm 2 mps 696 mmHg 66%
22:00 +17°C° 0 mm 2 mps 696 mmHg 68%
23:00 +16°C° 0 mm 1 mps 696 mmHg 70%

Day after tomorrow, 5 August, Wednesday

Time Temperature Precipitation Wind Pressure Humidity
00:00 +16°C° 0 mm 2 mps 695 mmHg 73%
01:00 +15°C° 0 mm 2 mps 695 mmHg 76%
02:00 +15°C° 0 mm 2 mps 695 mmHg 80%
03:00 +14°C° 0 mm 2 mps 694 mmHg 81%
04:00 +14°C° 0 mm 2 mps 694 mmHg 83%
05:00 +13°C° 0 mm 2 mps 694 mmHg 85%
06:00 +13°C° 0 mm 1 mps 694 mmHg 85%
07:00 +13°C° 0 mm 1 mps 695 mmHg 85%
08:00 +13°C° 0 mm 1 mps 696 mmHg 86%
09:00 +16°C° 0 mm 1 mps 696 mmHg 74%
10:00 +19°C° 0 mm 1 mps 697 mmHg 62%
11:00 +22°C° 0 mm 1 mps 698 mmHg 51%
12:00 +23°C° 0 mm 2 mps 698 mmHg 47%
13:00 +24°C° 0 mm 3 mps 698 mmHg 43%
14:00 +23°C° 0 mm 4 mps 698 mmHg 40%
15:00 +23°C° 0 mm 5 mps 698 mmHg 42%
16:00 +22°C° 0 mm 5 mps 697 mmHg 44%
17:00 +21°C° 0 mm 6 mps 697 mmHg 46%
18:00 +20°C° 0 mm 7 mps 698 mmHg 52%
19:00 +18°C° 0 mm 7 mps 698 mmHg 59%
20:00 +16°C° 0 mm 8 mps 699 mmHg 65%
21:00 +16°C° 0 mm 9 mps 700 mmHg 65%
22:00 +14°C° 0 mm 10 mps 700 mmHg 65%
23:00 +14°C° 0 mm 11 mps 701 mmHg 65%

6 August, Thursday

Time Temperature Precipitation Wind Pressure Humidity
00:00 +13°C° 0 mm 11 mps 701 mmHg 60%
01:00 +13°C° 0 mm 11 mps 702 mmHg 54%
02:00 +12°C° 0 mm 11 mps 702 mmHg 49%
03:00 +11°C° 0 mm 11 mps 702 mmHg 48%
04:00 +9°C° 0 mm 11 mps 703 mmHg 47%
05:00 +9°C° 0 mm 11 mps 703 mmHg 47%
06:00 +8°C° 0 mm 11 mps 704 mmHg 43%
07:00 +8°C° 0 mm 11 mps 704 mmHg 39%
08:00 +7°C° 0 mm 11 mps 705 mmHg 35%
09:00 +8°C° 0 mm 10 mps 706 mmHg 32%
10:00 +9°C° 0 mm 10 mps 706 mmHg 28%
11:00 +11°C° 0 mm 10 mps 707 mmHg 24%
12:00 +11°C° 0 mm 9 mps 706 mmHg 24%
13:00 +12°C° 0 mm 9 mps 706 mmHg 23%
14:00 +13°C° 0 mm 8 mps 705 mmHg 23%
15:00 +12°C° 0 mm 8 mps 705 mmHg 24%
16:00 +12°C° 0 mm 8 mps 705 mmHg 26%
17:00 +12°C° 0 mm 8 mps 704 mmHg 27%
18:00 +11°C° 0 mm 7 mps 704 mmHg 31%
19:00 +9°C° 0 mm 6 mps 704 mmHg 35%
20:00 +8°C° 0 mm 6 mps 704 mmHg 40%
21:00 +8°C° 0 mm 5 mps 704 mmHg 42%
22:00 +8°C° 0 mm 4 mps 703 mmHg 44%
23:00 +8°C° 0 mm 3 mps 703 mmHg 46%

7 August, Friday

Time Temperature Precipitation Wind Pressure Humidity
00:00 +8°C° 0 mm 3 mps 703 mmHg 47%
01:00 +8°C° 0 mm 3 mps 702 mmHg 48%
02:00 +8°C° 0 mm 3 mps 702 mmHg 48%
03:00 +7°C° 0 mm 3 mps 702 mmHg 49%
04:00 +7°C° 0 mm 3 mps 701 mmHg 50%
05:00 +7°C° 0 mm 2 mps 701 mmHg 51%
06:00 +7°C° 0 mm 2 mps 701 mmHg 50%
07:00 +8°C° 0 mm 2 mps 701 mmHg 49%
08:00 +8°C° 0 mm 2 mps 702 mmHg 47%
09:00 +10°C° 0 mm 2 mps 702 mmHg 42%
10:00 +13°C° 0 mm 2 mps 702 mmHg 36%
11:00 +15°C° 0 mm 2 mps 702 mmHg 30%
12:00 +16°C° 0 mm 2 mps 702 mmHg 30%
13:00 +18°C° 0 mm 1 mps 701 mmHg 29%
14:00 +19°C° 0 mm 1 mps 701 mmHg 28%
15:00 +18°C° 0 mm 2 mps 701 mmHg 29%
16:00 +18°C° 0 mm 2 mps 701 mmHg 30%
17:00 +17°C° 0 mm 3 mps 701 mmHg 31%
18:00 +16°C° 0 mm 3 mps 700 mmHg 38%
19:00 +13°C° 0 mm 3 mps 700 mmHg 44%
20:00 +11°C° 0 mm 3 mps 700 mmHg 50%
21:00 +11°C° 0 mm 3 mps 700 mmHg 55%
22:00 +10°C° 0 mm 2 mps 701 mmHg 60%
23:00 +10°C° 0 mm 2 mps 701 mmHg 64%

8 August, Saturday

Time Temperature Precipitation Wind Pressure Humidity
00:00 +10°C° 0 mm 2 mps 700 mmHg 63%
01:00 +9°C° 0 mm 2 mps 700 mmHg 61%
02:00 +9°C° 0 mm 2 mps 700 mmHg 60%
03:00 +9°C° 0 mm 2 mps 700 mmHg 59%
04:00 +9°C° 0 mm 2 mps 699 mmHg 58%
05:00 +9°C° 0 mm 2 mps 699 mmHg 57%
06:00 +10°C° 0 mm 2 mps 699 mmHg 57%
07:00 +10°C° 0 mm 2 mps 700 mmHg 57%
08:00 +10°C° 0 mm 2 mps 700 mmHg 57%
09:00 +13°C° 0 mm 3 mps 700 mmHg 53%
10:00 +16°C° 0 mm 3 mps 700 mmHg 48%
11:00 +18°C° 0 mm 3 mps 700 mmHg 44%
12:00 +19°C° 0 mm 3 mps 700 mmHg 41%
13:00 +20°C° 0 mm 3 mps 699 mmHg 39%
14:00 +21°C° 0 mm 3 mps 699 mmHg 37%
15:00 +21°C° 0 mm 3 mps 698 mmHg 37%
16:00 +21°C° 0 mm 2 mps 698 mmHg 38%
17:00 +20°C° 0 mm 2 mps 698 mmHg 38%
18:00 +19°C° 0 mm 2 mps 697 mmHg 43%
19:00 +17°C° 0 mm 2 mps 697 mmHg 47%
20:00 +15°C° 0 mm 2 mps 697 mmHg 52%
21:00 +15°C° 0 mm 2 mps 697 mmHg 54%
22:00 +14°C° 0 mm 2 mps 697 mmHg 56%
23:00 +14°C° 0 mm 2 mps 697 mmHg 59%
Show more